GW2166 Weather Reports


Display with metric or nautical units.
time (UTC)temp
F
wind
direction
speed
MPH
gust
MPH
rain 1hr
in
rain 24hr
in
rain mn
in
humidity
%
barometer
mb
20260905135457 75 134 0.0 1.0 0.00 0.00 0.00 90 1014.1
20260905134456 75 134 0.0 2.0 0.00 0.00 0.00 87 1014.1
20260905133956 74 134 1.0 2.0 0.00 0.00 0.00 88 1014.1
20260905132956 73 134 0.0 2.0 0.00 0.00 0.00 91 1014.0
20260905131956 72 134 1.0 2.0 0.00 0.00 0.00 92 1013.9
20260905131455 71 44 0.0 1.0 0.00 0.00 0.00 94 1013.8
20260905130956 71 44 0.0 0.0 0.00 0.00 0.00 94 1013.7
20260905130455 71 44 0.0 0.0 0.00 0.00 0.00 94 1013.7
20260905125955 71 44 0.0 0.0 0.00 0.00 0.00 95 1013.7
20260905125455 70 44 0.0 0.0 0.00 0.00 0.00 96 1013.7
20260905124955 69 44 0.0 0.0 0.00 0.00 0.00 97 1013.6
20260905124455 68 44 0.0 0.0 0.00 0.00 0.00 97 1013.6
20260905123955 68 44 0.0 0.0 0.00 0.00 0.00 97 1013.5
20260905123455 67 44 0.0 0.0 0.00 0.00 0.00 97 1013.5
20260905122955 67 44 0.0 0.0 0.00 0.00 0.00 96 1013.5
20260905121954 67 44 0.0 0.0 0.00 0.00 0.00 96 1013.3
20260905121455 67 44 0.0 0.0 0.00 0.00 0.00 96 1013.3
20260905120955 66 44 0.0 0.0 0.00 0.00 0.00 96 1013.2
20260905120454 66 44 0.0 0.0 0.00 0.00 0.00 96 1013.3
20260905115454 66 44 0.0 0.0 0.00 0.00 0.00 96 1013.2
20260905114954 66 44 0.0 0.0 0.00 0.00 0.00 96 1013.0
20260905114454 66 49 0.0 1.0 0.00 0.00 0.00 95 1013.0
20260905113953 66 65 0.0 1.0 0.00 0.00 0.00 96 1013.0
20260905113453 67 80 0.0 0.0 0.00 0.00 0.00 95 1012.9
20260905112953 67 79 0.0 2.0 0.00 0.00 0.00 96 1013.0
20260905112453 67 79 0.0 2.0 0.00 0.00 0.00 96 1013.0
20260905111953 67 80 1.0 2.0 0.00 0.00 0.00 96 1012.9
20260905111453 67 79 0.0 1.0 0.00 0.00 0.00 96 1012.9
20260905110953 67 79 0.0 2.0 0.00 0.00 0.00 96 1012.9
20260905110453 67 80 0.0 2.0 0.00 0.00 0.00 97 1012.8
20260905105953 67 149 1.0 2.0 0.00 0.00 0.00 97 1012.9
20260905105452 67 149 0.0 1.0 0.00 0.00 0.00 97 1012.9
20260905104952 67 149 0.0 1.0 0.00 0.00 0.00 96 1012.9
20260905104452 67 149 0.0 1.0 0.00 0.00 0.00 97 1012.8
20260905103952 67 149 0.0 1.0 0.00 0.00 0.00 97 1012.9
20260905103453 67 149 0.0 1.0 0.00 0.00 0.00 96 1012.9
20260905102952 66 149 0.0 1.0 0.00 0.00 0.00 96 1013.1
20260905102452 67 149 0.0 1.0 0.00 0.00 0.00 96 1013.0
20260905101952 67 147 0.0 2.0 0.00 0.00 0.00 96 1013.1
20260905100452 67 6 0.0 0.0 0.00 0.00 0.00 96 1012.9
20260905095452 67 6 0.0 0.0 0.00 0.00 0.00 96 1013.0
20260905094951 67 6 0.0 0.0 0.00 0.00 0.00 96 1012.9
20260905094451 67 6 0.0 0.0 0.00 0.00 0.00 96 1012.8
20260905093951 67 6 0.0 0.0 0.00 0.00 0.00 96 1012.9
20260905093450 67 6 0.0 0.0 0.00 0.00 0.00 96 1012.9
20260905092950 67 6 0.0 0.0 0.00 0.00 0.00 96 1012.9
20260905092451 67 10 0.0 0.0 0.00 0.00 0.00 96 1012.9
20260905091451 67 10 0.0 0.0 0.00 0.00 0.00 96 1012.9
20260905090950 67 10 0.0 0.0 0.00 0.00 0.00 96 1012.9
20260905090450 67 10 0.0 0.0 0.00 0.00 0.00 96 1012.9
20260905085950 68 10 0.0 0.0 0.00 0.00 0.00 96 1012.8
20260905085450 68 10 0.0 0.0 0.00 0.00 0.00 96 1012.8
20260905084950 68 10 0.0 0.0 0.00 0.00 0.00 96 1012.9
20260905084450 68 10 0.0 0.0 0.00 0.00 0.00 96 1012.8
20260905083949 68 10 0.0 0.0 0.00 0.00 0.00 96 1012.9
20260905083449 67 10 0.0 0.0 0.00 0.00 0.00 96 1012.9
20260905082950 68 10 0.0 0.0 0.00 0.00 0.00 96 1012.9
20260905082450 68 10 0.0 0.0 0.00 0.00 0.00 96 1012.7
20260905081949 68 10 0.0 0.0 0.00 0.00 0.00 96 1012.7
20260905081449 68 10 0.0 0.0 0.00 0.00 0.00 96 1012.7
20260905080948 68 10 0.0 0.0 0.00 0.00 0.00 96 1012.8
20260905080448 68 10 0.0 0.0 0.00 0.00 0.00 96 1012.8
20260905075948 68 10 0.0 0.0 0.00 0.00 0.00 96 1012.7
20260905074948 68 10 0.0 0.0 0.00 0.00 0.00 96 1012.7
20260905074448 68 10 0.0 0.0 0.00 0.00 0.00 96 1012.7
20260905073948 68 10 0.0 0.0 0.00 0.00 0.00 95 1012.8
20260905073448 68 10 0.0 1.0 0.00 0.00 0.00 95 1012.8
20260905072948 68 10 0.0 1.0 0.00 0.00 0.00 95 1012.9
20260905072448 68 10 0.0 1.0 0.00 0.00 0.00 96 1012.9
20260905071948 68 10 0.0 0.0 0.00 0.00 0.00 95 1012.8
20260905071447 69 10 0.0 0.0 0.00 0.00 0.00 95 1012.9
20260905070947 69 10 0.0 0.0 0.00 0.00 0.00 95 1012.9
20260905070448 69 10 0.0 0.0 0.00 0.00 0.00 95 1012.8
20260905065948 69 10 0.0 0.0 0.00 0.00 0.00 95 1012.8
20260905065447 68 10 0.0 0.0 0.00 0.00 0.00 95 1012.8
20260905064947 69 10 0.0 0.0 0.00 0.00 0.00 95 1012.9
20260905064447 69 10 0.0 0.0 0.00 0.00 0.00 95 1012.9
20260905063946 69 10 0.0 0.0 0.00 0.00 0.00 95 1012.9
20260905062947 69 10 0.0 0.0 0.00 0.00 0.00 95 1012.9
20260905061947 69 10 0.0 0.0 0.00 0.00 0.00 95 1013.0
20260905060946 69 10 0.0 0.0 0.00 0.00 0.00 95 1013.0
20260905060445 69 10 0.0 0.0 0.00 0.00 0.00 94 1013.0
20260905055945 69 10 0.0 0.0 0.00 0.00 0.00 94 1013.1
20260905055446 69 10 0.0 0.0 0.00 0.00 0.00 94 1013.0
20260905054946 69 10 0.0 0.0 0.00 0.00 0.00 94 1013.0
20260905054446 69 10 0.0 0.0 0.00 0.00 0.00 94 1013.1
20260905053946 69 10 0.0 0.0 0.00 0.00 0.00 94 1012.9
20260905051945 70 10 0.0 2.0 0.00 0.00 0.00 92 1012.8
20260905051444 71 10 1.0 2.0 0.00 0.00 0.00 92 1012.8
20260905050944 71 10 2.0 2.0 0.00 0.00 0.00 92 1012.8
20260905050445 71 10 2.0 2.0 0.00 0.00 0.00 93 1012.8
20260905045944 70 10 2.0 2.0 0.00 0.00 0.00 94 1012.9
20260905045444 70 10 0.0 0.0 0.00 0.00 0.00 94 1012.8
20260905044945 70 10 0.0 0.0 0.00 0.00 0.00 94 1012.8
20260905044444 70 10 0.0 0.0 0.00 0.00 0.00 94 1012.8
20260905043944 70 10 0.0 0.0 0.00 0.00 0.00 93 1012.9
20260905043444 71 10 0.0 0.0 0.00 0.00 0.00 93 1012.9
20260905042944 71 10 0.0 0.0 0.00 0.00 0.00 93 1012.8
20260905042444 71 10 0.0 0.0 0.00 0.00 0.00 93 1012.9
20260905041944 71 10 0.0 0.0 0.00 0.00 0.00 93 1012.9
20260905041443 71 10 0.0 0.0 0.00 0.00 0.00 93 1013.0
20260905040943 71 10 0.0 0.0 0.00 0.00 0.00 93 1012.9
20260905040444 71 10 0.0 0.0 0.00 0.00 0.00 93 1012.9
20260905035943 71 10 0.0 0.0 0.00 0.00 0.00 92 1013.0
20260905035443 71 10 0.0 0.0 0.00 0.00 0.00 92 1012.8
20260905034444 72 10 0.0 0.0 0.00 0.00 0.00 92 1012.7
20260905033943 72 10 0.0 0.0 0.00 0.00 0.00 92 1012.8
20260905033443 72 10 0.0 0.0 0.00 0.00 0.00 91 1012.9
20260905032942 72 10 0.0 0.0 0.00 0.00 0.00 91 1012.9
20260905031942 72 10 0.0 0.0 0.00 0.00 0.00 92 1012.9
20260905031442 72 10 0.0 0.0 0.00 0.00 0.00 92 1012.8
20260905030942 72 10 0.0 0.0 0.00 0.00 0.00 91 1012.7
20260905030442 73 10 0.0 0.0 0.00 0.00 0.00 90 1012.8
20260905025942 73 10 0.0 0.0 0.00 0.00 0.00 90 1012.7
20260905025441 73 10 0.0 0.0 0.00 0.00 0.00 90 1012.6
20260905024941 73 10 0.0 0.0 0.00 0.00 0.00 89 1012.6
20260905024442 73 10 0.0 0.0 0.00 0.00 0.00 89 1012.5
20260905023942 73 10 0.0 0.0 0.00 0.00 0.00 89 1012.4
20260905021940 76 10 1.0 3.0 0.00 0.00 0.00 83 1012.2
20260905021441 76 10 1.0 3.0 0.00 0.00 0.00 84 1012.2
20260905020941 75 10 2.0 3.0 0.00 0.00 0.00 85 1012.1
20260905020440 76 130 1.0 2.0 0.00 0.00 0.00 85 1012.0
20260905015940 76 130 0.0 0.0 0.00 0.00 0.00 85 1011.9
20260905014940 76 130 0.0 0.0 0.00 0.00 0.00 83 1011.7
20260905013940 77 130 0.0 1.0 0.00 0.00 0.00 82 1011.6
20260905012940 77 123 0.0 0.0 0.00 0.00 0.00 81 1011.5
20260905012440 78 123 0.0 0.0 0.00 0.00 0.00 80 1011.5
20260905011939 78 123 0.0 0.0 0.00 0.00 0.00 80 1011.4
20260905011440 78 123 0.0 0.0 0.00 0.00 0.00 79 1011.4
20260905010939 79 123 0.0 0.0 0.00 0.00 0.00 78 1011.3
20260905005939 80 123 0.0 1.0 0.00 0.00 0.00 76 1011.4
20260905005439 80 123 0.0 0.0 0.00 0.00 0.00 75 1011.3
20260905004939 81 121 0.0 1.0 0.00 0.00 0.00 75 1011.4
20260905003939 83 124 0.0 2.0 0.00 0.00 0.00 71 1011.4
20260905003438 84 124 1.0 2.0 0.00 0.00 0.00 70 1011.3
20260905002938 84 173 0.0 2.0 0.00 0.00 0.00 69 1011.3
20260905002438 85 173 1.0 4.0 0.00 0.00 0.00 68 1011.3
20260905001938 86 173 1.0 4.0 0.00 0.00 0.00 66 1011.3
20260905000938 89 180 1.0 5.0 0.00 0.00 0.00 60 1011.5
20260905000439 90 172 2.0 4.0 0.00 0.00 0.00 56 1011.6
20260904235937 92 175 2.0 5.0 0.00 0.00 0.00 54 1011.5
20260904235437 92 171 2.0 5.0 0.00 0.00 0.00 53 1011.5
20260904234938 93 172 3.0 6.0 0.00 0.00 0.00 53 1011.5
20260904234438 94 193 3.0 7.0 0.00 0.00 0.00 52 1011.5
20260904233937 94 210 2.0 7.0 0.00 0.00 0.00 50 1011.5
20260904233437 95 168 2.0 10.0 0.00 0.00 0.00 51 1011.5
20260904232937 95 180 3.0 10.0 0.00 0.00 0.00 47 1011.5
20260904232436 95 168 4.0 10.0 0.00 0.00 0.00 46 1011.6
20260904231937 95 197 4.0 11.0 0.00 0.00 0.00 47 1011.6
20260904231437 96 171 7.0 11.0 0.00 0.00 0.00 45 1011.6
20260904230936 96 116 5.0 11.0 0.00 0.00 0.00 47 1011.6
20260904230436 96 151 6.0 12.0 0.00 0.00 0.00 45 1011.7
20260904225436 96 169 5.0 10.0 0.00 0.00 0.00 45 1011.6
20260904224935 96 188 6.0 11.0 0.00 0.00 0.00 46 1011.6
20260904223936 96 179 6.0 10.0 0.00 0.00 0.00 46 1011.7
20260904223436 97 175 5.0 10.0 0.00 0.00 0.00 46 1011.6
20260904222935 97 124 4.0 12.0 0.00 0.00 0.00 45 1011.6
20260904222435 97 168 7.0 12.0 0.00 0.00 0.00 45 1011.6
20260904221935 97 209 5.0 11.0 0.00 0.00 0.00 46 1011.7
20260904221435 97 155 6.0 11.0 0.00 0.00 0.00 44 1011.7
20260904220935 97 149 4.0 17.0 0.00 0.00 0.00 45 1011.7
20260904220435 98 193 4.0 17.0 0.00 0.00 0.00 45 1011.6
20260904215935 98 214 6.0 11.0 0.00 0.00 0.00 46 1011.7
20260904215435 98 203 3.0 11.0 0.00 0.00 0.00 45 1011.8
20260904214935 98 210 5.0 11.0 0.00 0.00 0.00 44 1011.7
20260904214434 98 169 5.0 11.0 0.00 0.00 0.00 45 1011.8
20260904213934 98 161 4.0 10.0 0.00 0.00 0.00 46 1011.8
20260904212934 98 154 5.0 14.0 0.00 0.00 0.00 45 1011.9
20260904212434 98 133 5.0 14.0 0.00 0.00 0.00 45 1012.0
20260904211934 98 128 6.0 12.0 0.00 0.00 0.00 45 1012.0
20260904211434 98 213 4.0 12.0 0.00 0.00 0.00 46 1012.1
20260904210933 98 190 9.0 12.0 0.00 0.00 0.00 46 1012.1
20260904210433 98 200 4.0 11.0 0.00 0.00 0.00 47 1012.1
20260904205433 98 178 5.0 14.0 0.00 0.00 0.00 45 1012.1
20260904204934 98 219 4.0 12.0 0.00 0.00 0.00 46 1012.1
20260904203932 97 200 5.0 12.0 0.00 0.00 0.00 46 1012.1
20260904203432 98 147 4.0 13.0 0.00 0.00 0.00 46 1012.2
20260904202933 98 172 5.0 13.0 0.00 0.00 0.00 46 1012.3
20260904202433 98 157 5.0 14.0 0.00 0.00 0.00 47 1012.3
20260904201932 98 185 7.0 14.0 0.00 0.00 0.00 45 1012.4
20260904201433 98 193 6.0 14.0 0.00 0.00 0.00 46 1012.4
20260904200432 97 192 3.0 11.0 0.00 0.00 0.00 46 1012.4
20260904195932 98 219 4.0 15.0 0.00 0.00 0.00 47 1012.5
20260904195431 98 255 5.0 15.0 0.00 0.00 0.00 49 1012.5
20260904194932 97 152 4.0 12.0 0.00 0.00 0.00 47 1012.5
20260904194432 98 199 5.0 16.0 0.00 0.00 0.00 46 1012.5
20260904193931 97 248 5.0 16.0 0.00 0.00 0.00 46 1012.6
20260904193431 97 217 7.0 15.0 0.00 0.00 0.00 46 1012.6
20260904192931 97 168 6.0 15.0 0.00 0.00 0.00 46 1012.6
20260904192432 97 147 6.0 15.0 0.00 0.00 0.00 48 1012.6
20260904191930 96 183 6.0 15.0 0.00 0.00 0.00 48 1012.7
20260904191431 96 161 5.0 15.0 0.00 0.00 0.00 49 1012.7
20260904190931 97 162 8.0 15.0 0.00 0.00 0.00 48 1012.9
20260904190432 96 171 7.0 14.0 0.00 0.00 0.00 50 1012.9
20260904185930 97 188 9.0 14.0 0.00 0.00 0.00 47 1012.9
20260904185430 97 195 4.0 10.0 0.00 0.00 0.00 49 1012.9
20260904184932 96 144 6.0 17.0 0.00 0.00 0.00 49 1013.0
20260904183929 96 262 8.0 18.0 0.00 0.00 0.00 49 1013.1
20260904183430 95 274 7.0 18.0 0.00 0.00 0.00 51 1013.1
20260904182429 96 165 6.0 16.0 0.00 0.00 0.00 50 1013.2
20260904181930 96 210 7.0 17.0 0.00 0.00 0.00 50 1013.2
20260904181430 95 178 7.0 17.0 0.00 0.00 0.00 49 1013.2
20260904180929 95 125 7.0 16.0 0.00 0.00 0.00 50 1013.3
20260904180430 94 165 6.0 16.0 0.00 0.00 0.00 53 1013.2
20260904175929 95 179 9.0 16.0 0.00 0.00 0.00 52 1013.2
20260904174929 95 182 8.0 16.0 0.00 0.00 0.00 53 1013.4
20260904174428 95 159 5.0 17.0 0.00 0.00 0.00 54 1013.5
20260904173930 95 165 9.0 17.0 0.00 0.00 0.00 53 1013.5
20260904173428 94 240 6.0 13.0 0.00 0.00 0.00 54 1013.6
20260904171928 93 210 6.0 15.0 0.00 0.00 0.00 55 1013.7
20260904171428 93 159 9.0 16.0 0.00 0.00 0.00 53 1013.9
20260904170928 93 257 8.0 16.0 0.00 0.00 0.00 55 1013.8
20260904170428 93 159 6.0 13.0 0.00 0.00 0.00 54 1013.8
20260904165928 93 219 7.0 13.0 0.00 0.00 0.00 55 1013.9
20260904165427 92 217 6.0 17.0 0.00 0.00 0.00 56 1014.0
20260904163927 92 237 6.0 17.0 0.00 0.00 0.00 56 1014.0
20260904162927 91 224 10.0 21.0 0.00 0.00 0.00 55 1014.1
20260904162427 91 223 9.0 21.0 0.00 0.00 0.00 58 1014.2
20260904161927 91 197 9.0 16.0 0.00 0.00 0.00 57 1014.2
20260904161427 91 216 9.0 16.0 0.00 0.00 0.00 57 1014.2
20260904160926 90 192 8.0 16.0 0.00 0.00 0.00 58 1014.1
20260904160426 90 209 8.0 14.0 0.00 0.00 0.00 60 1014.1
20260904155927 90 243 6.0 15.0 0.00 0.00 0.00 60 1014.1
20260904155427 89 203 5.0 19.0 0.00 0.00 0.00 62 1014.1
20260904154426 89 179 7.0 12.0 0.00 0.00 0.00 62 1014.1
20260904153426 88 173 9.0 15.0 0.00 0.00 0.00 65 1014.2
20260904152925 88 202 7.0 13.0 0.00 0.00 0.00 64 1014.2
20260904152426 87 240 7.0 15.0 0.00 0.00 0.00 66 1014.3
20260904151925 86 199 8.0 15.0 0.00 0.00 0.00 66 1014.2
20260904151426 86 183 10.0 18.0 0.00 0.00 0.00 67 1014.2
20260904150925 86 219 9.0 18.0 0.00 0.00 0.00 66 1014.3
20260904150425 86 183 4.0 15.0 0.00 0.00 0.00 68 1014.2
20260904145925 85 197 7.0 15.0 0.00 0.00 0.00 68 1014.2
20260904145424 85 212 7.0 13.0 0.00 0.00 0.00 69 1014.2
20260904144925 85 175 6.0 13.0 0.00 0.00 0.00 69 1014.1
20260904144425 85 147 5.0 12.0 0.00 0.00 0.00 70 1014.2
20260904143424 84 219 6.0 14.0 0.00 0.00 0.00 70 1014.1
20260904142924 84 240 7.0 14.0 0.00 0.00 0.00 72 1014.1
20260904142424 84 206 4.0 12.0 0.00 0.00 0.00 74 1014.2
20260904141924 83 233 6.0 12.0 0.00 0.00 0.00 74 1014.2
20260904140924 82 159 5.0 10.0 0.00 0.00 0.00 75 1014.2
20260904140423 81 227 4.0 10.0 0.00 0.00 0.00 77 1014.3
20260904135925 81 175 5.0 10.0 0.00 0.00 0.00 77 1014.3